NOAA 16 DEB, 41290

Orbit data source: Space-Track

NOAA 16 DEB, 41290 is space debris in SSO originally from a launch on Thu, 21 Sep 2000 UTC launched from the Air Force Western Test Range (AFWTR). Debris objects in space refer to the collection of defunct objects orbiting the Earth. Examples of debris include non-operational satellites, rocket bodies, and fragments generated from explosions, collisions, or faulty payload assembly.

Loading next visibility...
Identifier
41290, 2000-055GS
Orbit
SSO
Country
Flag of USUS
Related business
Manufacturer
Unknown
Mission
Spacecraft
Bus & Motor
Unknown
Mass
Unknown
Launch date (UTC)
2000-09-21 (25 years ago)
Launch vehicle
Unknown
Launch site
Air Force Western Test Range (AFWTR)
Object type
Payload
Rocket body
Debris
Shape & HBR
Unknown shape, 0.1 m
Radar Cross Section
Small (<0.1 m²)

Expand to show TLE details & history
Last TLE update: 1 day ago

TLE from 1 day ago
0 NOAA 16 DEB
1 41290U 00055GS  26014.36669424  .00010315  00000-0  18457-2 0  9996
2 41290  99.0050 246.6725 0012277 221.7726 138.2539 14.67020217524146
Epoch: 2026-01-14T08:48Z
TLE epoch observation values (Epoch: 2026-01-14T08:48:02.382Z)
Latitude
-0.00002°
Longitude
0.82687°
Altitude
680.028 km
Speed
7.513 km/s
True Right ascension
16h 26m 41s
True Declination
0° 00' 00"
Sunlit
Object was in daylight at epoch
Visualization orbit readout
Latitude
Unknown
Longitude
Unknown
Altitude
Unknown
Speed
Unknown
Apparent Right ascension
Unknown
Apparent Declination
Unknown
Sunlit
N/A
Visualization observer readout
Local Sidereal Time
13:11:03
Azimuth
Unknown
Elevation
Unknown
Doppler factor
Unknown
Orbital elements
Apogee altitude
676.358 km
Perigee altitude
659.057 km
Semi-major axis
7,045.845 km
Eccentricity
0.00123
Inclination
99.005°
RAAN
246.6725°
Arg. of periapsis
221.7726°
True anomaly
138.34746°
Mean anomaly
138.2539°
Eccentric anomaly
138.30069°
Mean motion
3.66981 °/min
Orbital period
98.1 mins
BSTAR
0.0018457
Loading maneuver chart data...
Computing Atmospheric mass density...
Loading historical data...
Loading historical data...
Loading historical data...
Loading historical data...
Loading historical data...
Loading historical data...
Loading historical data...

Documentation

Showing up to 5 results
|